Year,Month,Day,Hour,Minute,Value (Times are PST for insolation in W/m^2)
2013,12,30,00,00,0.00
2013,12,30,00,01,0.00
2013,12,30,00,02,0.00
2013,12,30,00,03,0.00
2013,12,30,00,04,0.00
2013,12,30,00,05,0.00
2013,12,30,00,06,0.00
2013,12,30,00,07,0.00
2013,12,30,00,08,0.00
2013,12,30,00,09,0.00
2013,12,30,00,10,0.00
2013,12,30,00,11,0.00
2013,12,30,00,12,0.00
2013,12,30,00,13,0.00
2013,12,30,00,14,0.00
2013,12,30,00,15,0.00
2013,12,30,00,16,0.00
2013,12,30,00,17,0.00
2013,12,30,00,18,0.00
2013,12,30,00,19,0.00
2013,12,30,00,20,0.00
2013,12,30,00,21,0.00
2013,12,30,00,22,0.00
2013,12,30,00,23,0.00
2013,12,30,00,24,0.00
2013,12,30,00,25,0.00
2013,12,30,00,26,0.00
2013,12,30,00,27,0.00
2013,12,30,00,28,0.00
2013,12,30,00,29,0.00
2013,12,30,00,30,0.00
2013,12,30,00,31,0.00
2013,12,30,00,32,0.00
2013,12,30,00,33,0.00
2013,12,30,00,34,0.00
2013,12,30,00,35,0.00
2013,12,30,00,36,0.00
2013,12,30,00,37,0.00
2013,12,30,00,38,0.00
2013,12,30,00,39,0.00
2013,12,30,00,40,0.00
2013,12,30,00,41,0.00
2013,12,30,00,42,0.00
2013,12,30,00,43,0.00
2013,12,30,00,44,0.00
2013,12,30,00,45,0.00
2013,12,30,00,46,0.00
2013,12,30,00,47,0.00
2013,12,30,00,48,0.00
2013,12,30,00,49,0.00
2013,12,30,00,50,0.00
2013,12,30,00,51,0.00
2013,12,30,00,52,0.00
2013,12,30,00,53,0.00
2013,12,30,00,54,0.00
2013,12,30,00,55,0.00
2013,12,30,00,56,0.00
2013,12,30,00,57,0.00
2013,12,30,00,58,0.00
2013,12,30,00,59,0.00
2013,12,30,01,00,0.00
2013,12,30,01,01,0.00
2013,12,30,01,02,0.00
2013,12,30,01,03,0.00
2013,12,30,01,04,0.00
2013,12,30,01,05,0.00
2013,12,30,01,06,0.00
2013,12,30,01,07,0.00
2013,12,30,01,08,0.00
2013,12,30,01,09,0.00
2013,12,30,01,10,0.00
2013,12,30,01,11,0.00
2013,12,30,01,12,0.00
2013,12,30,01,13,0.00
2013,12,30,01,14,0.00
2013,12,30,01,15,0.00
2013,12,30,01,16,0.00
2013,12,30,01,17,0.00
2013,12,30,01,18,0.00
2013,12,30,01,19,0.00
2013,12,30,01,20,0.00
2013,12,30,01,21,0.00
2013,12,30,01,22,0.00
2013,12,30,01,23,0.00
2013,12,30,01,24,0.00
2013,12,30,01,25,0.00
2013,12,30,01,26,0.00
2013,12,30,01,27,0.00
2013,12,30,01,28,0.00
2013,12,30,01,29,0.00
2013,12,30,01,30,0.00
2013,12,30,01,31,0.00
2013,12,30,01,32,0.00
2013,12,30,01,33,0.00
2013,12,30,01,34,0.00
2013,12,30,01,35,0.00
2013,12,30,01,36,0.00
2013,12,30,01,37,0.00
2013,12,30,01,38,0.00
2013,12,30,01,39,0.00
2013,12,30,01,40,0.00
2013,12,30,01,41,0.00
2013,12,30,01,42,0.00
2013,12,30,01,43,0.00
2013,12,30,01,44,0.00
2013,12,30,01,45,0.00
2013,12,30,01,46,0.00
2013,12,30,01,47,0.00
2013,12,30,01,48,0.00
2013,12,30,01,49,0.00
2013,12,30,01,50,0.00
2013,12,30,01,51,0.00
2013,12,30,01,52,0.00
2013,12,30,01,53,0.00
2013,12,30,01,54,0.00
2013,12,30,01,55,0.00
2013,12,30,01,56,0.00
2013,12,30,01,57,0.00
2013,12,30,01,58,0.00
2013,12,30,01,59,0.00
2013,12,30,02,00,0.00
2013,12,30,02,01,0.00
2013,12,30,02,02,0.00
2013,12,30,02,03,0.00
2013,12,30,02,04,0.00
2013,12,30,02,05,0.00
2013,12,30,02,06,0.00
2013,12,30,02,07,0.00
2013,12,30,02,08,0.00
2013,12,30,02,09,0.00
2013,12,30,02,10,0.00
2013,12,30,02,11,0.00
2013,12,30,02,12,0.00
2013,12,30,02,13,0.00
2013,12,30,02,14,0.00
2013,12,30,02,15,0.00
2013,12,30,02,16,0.00
2013,12,30,02,17,0.00
2013,12,30,02,18,0.00
2013,12,30,02,19,0.00
2013,12,30,02,20,0.00
2013,12,30,02,21,0.00
2013,12,30,02,22,0.00
2013,12,30,02,23,0.00
2013,12,30,02,24,0.00
2013,12,30,02,25,0.00
2013,12,30,02,26,0.00
2013,12,30,02,27,0.00
2013,12,30,02,28,0.00
2013,12,30,02,29,0.00
2013,12,30,02,30,0.00
2013,12,30,02,31,0.00
2013,12,30,02,32,0.00
2013,12,30,02,33,0.00
2013,12,30,02,34,0.00
2013,12,30,02,35,0.00
2013,12,30,02,36,0.00
2013,12,30,02,37,0.00
2013,12,30,02,38,0.00
2013,12,30,02,39,0.00
2013,12,30,02,40,0.00
2013,12,30,02,41,0.00
2013,12,30,02,42,0.00
2013,12,30,02,43,0.00
2013,12,30,02,44,0.00
2013,12,30,02,45,0.00
2013,12,30,02,46,0.00
2013,12,30,02,47,0.00
2013,12,30,02,48,0.00
2013,12,30,02,49,0.00
2013,12,30,02,50,0.00
2013,12,30,02,51,0.00
2013,12,30,02,52,0.00
2013,12,30,02,53,0.00
2013,12,30,02,54,0.00
2013,12,30,02,55,0.00
2013,12,30,02,56,0.00
2013,12,30,02,57,0.00
2013,12,30,02,58,0.00
2013,12,30,02,59,0.00
2013,12,30,03,00,0.00
2013,12,30,03,01,0.00
2013,12,30,03,02,0.00
2013,12,30,03,03,0.00
2013,12,30,03,04,0.00
2013,12,30,03,05,0.00
2013,12,30,03,06,0.00
2013,12,30,03,07,0.00
2013,12,30,03,08,0.00
2013,12,30,03,09,0.00
2013,12,30,03,10,0.00
2013,12,30,03,11,0.00
2013,12,30,03,12,0.00
2013,12,30,03,13,0.00
2013,12,30,03,14,0.00
2013,12,30,03,15,0.00
2013,12,30,03,16,0.00
2013,12,30,03,17,0.00
2013,12,30,03,18,0.00
2013,12,30,03,19,0.00
2013,12,30,03,20,0.00
2013,12,30,03,21,0.00
2013,12,30,03,22,0.00
2013,12,30,03,23,0.00
2013,12,30,03,24,0.00
2013,12,30,03,25,0.00
2013,12,30,03,26,0.00
2013,12,30,03,27,0.00
2013,12,30,03,28,0.00
2013,12,30,03,29,0.00
2013,12,30,03,30,0.00
2013,12,30,03,31,0.00
2013,12,30,03,32,0.00
2013,12,30,03,33,0.00
2013,12,30,03,34,0.00
2013,12,30,03,35,0.00
2013,12,30,03,36,0.00
2013,12,30,03,37,0.00
2013,12,30,03,38,0.00
2013,12,30,03,39,0.00
2013,12,30,03,40,0.00
2013,12,30,03,41,0.00
2013,12,30,03,42,0.00
2013,12,30,03,43,0.00
2013,12,30,03,44,0.00
2013,12,30,03,45,0.00
2013,12,30,03,46,0.00
2013,12,30,03,47,0.00
2013,12,30,03,48,0.00
2013,12,30,03,49,0.00
2013,12,30,03,50,0.00
2013,12,30,03,51,0.00
2013,12,30,03,52,0.00
2013,12,30,03,53,0.00
2013,12,30,03,54,0.00
2013,12,30,03,55,0.00
2013,12,30,03,56,0.00
2013,12,30,03,57,0.00
2013,12,30,03,58,0.00
2013,12,30,03,59,0.00
2013,12,30,04,00,0.00
2013,12,30,04,01,0.00
2013,12,30,04,02,0.00
2013,12,30,04,03,0.00
2013,12,30,04,04,0.00
2013,12,30,04,05,0.00
2013,12,30,04,06,0.00
2013,12,30,04,07,0.00
2013,12,30,04,08,0.00
2013,12,30,04,09,0.00
2013,12,30,04,10,0.00
2013,12,30,04,11,0.00
2013,12,30,04,12,0.00
2013,12,30,04,13,0.00
2013,12,30,04,14,0.00
2013,12,30,04,15,0.00
2013,12,30,04,16,0.00
2013,12,30,04,17,0.00
2013,12,30,04,18,0.00
2013,12,30,04,19,0.00
2013,12,30,04,20,0.00
2013,12,30,04,21,0.00
2013,12,30,04,22,0.00
2013,12,30,04,23,0.00
2013,12,30,04,24,0.00
2013,12,30,04,25,0.00
2013,12,30,04,26,0.00
2013,12,30,04,27,0.00
2013,12,30,04,28,0.00
2013,12,30,04,29,0.00
2013,12,30,04,30,0.00
2013,12,30,04,31,0.00
2013,12,30,04,32,0.00
2013,12,30,04,33,0.00
2013,12,30,04,34,0.00
2013,12,30,04,35,0.00
2013,12,30,04,36,0.00
2013,12,30,04,37,0.00
2013,12,30,04,38,0.00
2013,12,30,04,39,0.00
2013,12,30,04,40,0.00
2013,12,30,04,41,0.00
2013,12,30,04,42,0.00
2013,12,30,04,43,0.00
2013,12,30,04,44,0.00
2013,12,30,04,45,0.00
2013,12,30,04,46,0.00
2013,12,30,04,47,0.00
2013,12,30,04,48,0.00
2013,12,30,04,49,0.00
2013,12,30,04,50,0.00
2013,12,30,04,51,0.00
2013,12,30,04,52,0.00
2013,12,30,04,53,0.00
2013,12,30,04,54,0.00
2013,12,30,04,55,0.00
2013,12,30,04,56,0.00
2013,12,30,04,57,0.00
2013,12,30,04,58,0.00
2013,12,30,04,59,0.00
2013,12,30,05,00,0.00
2013,12,30,05,01,0.00
2013,12,30,05,02,0.00
2013,12,30,05,03,0.00
2013,12,30,05,04,0.00
2013,12,30,05,05,0.00
2013,12,30,05,06,0.00
2013,12,30,05,07,0.00
2013,12,30,05,08,0.00
2013,12,30,05,09,0.00
2013,12,30,05,10,0.00
2013,12,30,05,11,0.00
2013,12,30,05,12,0.00
2013,12,30,05,13,0.00
2013,12,30,05,14,0.00
2013,12,30,05,15,0.00
2013,12,30,05,16,0.00
2013,12,30,05,17,0.00
2013,12,30,05,18,0.00
2013,12,30,05,19,0.00
2013,12,30,05,20,0.00
2013,12,30,05,21,0.00
2013,12,30,05,22,0.00
2013,12,30,05,23,0.00
2013,12,30,05,24,0.00
2013,12,30,05,25,0.00
2013,12,30,05,26,0.00
2013,12,30,05,27,0.00
2013,12,30,05,28,0.00
2013,12,30,05,29,0.00
2013,12,30,05,30,0.00
2013,12,30,05,31,0.00
2013,12,30,05,32,0.00
2013,12,30,05,33,0.00
2013,12,30,05,34,0.00
2013,12,30,05,35,0.00
2013,12,30,05,36,0.00
2013,12,30,05,37,0.00
2013,12,30,05,38,0.00
2013,12,30,05,39,0.00
2013,12,30,05,40,0.00
2013,12,30,05,41,0.00
2013,12,30,05,42,0.00
2013,12,30,05,43,0.00
2013,12,30,05,44,0.00
2013,12,30,05,45,0.00
2013,12,30,05,46,0.00
2013,12,30,05,47,0.00
2013,12,30,05,48,0.00
2013,12,30,05,49,0.00
2013,12,30,05,50,0.00
2013,12,30,05,51,0.00
2013,12,30,05,52,0.00
2013,12,30,05,53,0.00
2013,12,30,05,54,0.00
2013,12,30,05,55,0.00
2013,12,30,05,56,0.00
2013,12,30,05,57,0.00
2013,12,30,05,58,0.00
2013,12,30,05,59,0.00
2013,12,30,06,00,0.00
2013,12,30,06,01,0.00
2013,12,30,06,02,0.00
2013,12,30,06,03,0.00
2013,12,30,06,04,0.00
2013,12,30,06,05,0.00
2013,12,30,06,06,0.00
2013,12,30,06,07,0.00
2013,12,30,06,08,0.00
2013,12,30,06,09,0.00
2013,12,30,06,10,0.00
2013,12,30,06,11,0.00
2013,12,30,06,12,0.00
2013,12,30,06,13,0.00
2013,12,30,06,14,0.00
2013,12,30,06,15,0.00
2013,12,30,06,16,0.00
2013,12,30,06,17,0.00
2013,12,30,06,18,0.00
2013,12,30,06,19,0.00
2013,12,30,06,20,0.00
2013,12,30,06,21,0.00
2013,12,30,06,22,0.00
2013,12,30,06,23,0.00
2013,12,30,06,24,0.00
2013,12,30,06,25,0.00
2013,12,30,06,26,0.00
2013,12,30,06,27,0.00
2013,12,30,06,28,0.00
2013,12,30,06,29,0.00
2013,12,30,06,30,0.00
2013,12,30,06,31,0.00
2013,12,30,06,32,0.00
2013,12,30,06,33,0.00
2013,12,30,06,34,0.00
2013,12,30,06,35,0.00
2013,12,30,06,36,0.00
2013,12,30,06,37,0.00
2013,12,30,06,38,0.00
2013,12,30,06,39,0.00
2013,12,30,06,40,0.00
2013,12,30,06,41,0.00
2013,12,30,06,42,0.00
2013,12,30,06,43,0.00
2013,12,30,06,44,0.00
2013,12,30,06,45,0.00
2013,12,30,06,46,0.00
2013,12,30,06,47,0.00
2013,12,30,06,48,0.00
2013,12,30,06,49,0.00
2013,12,30,06,50,0.00
2013,12,30,06,51,0.00
2013,12,30,06,52,0.00
2013,12,30,06,53,0.00
2013,12,30,06,54,0.00
2013,12,30,06,55,0.00
2013,12,30,06,56,0.00
2013,12,30,06,57,0.00
2013,12,30,06,58,0.00
2013,12,30,06,59,0.00
2013,12,30,07,00,0.00
2013,12,30,07,01,0.00
2013,12,30,07,02,0.00
2013,12,30,07,03,0.00
2013,12,30,07,04,0.00
2013,12,30,07,05,0.00
2013,12,30,07,06,0.00
2013,12,30,07,07,0.00
2013,12,30,07,08,0.00
2013,12,30,07,09,0.00
2013,12,30,07,10,0.00
2013,12,30,07,11,0.00
2013,12,30,07,12,0.00
2013,12,30,07,13,0.00
2013,12,30,07,14,0.00
2013,12,30,07,15,0.00
2013,12,30,07,16,0.00
2013,12,30,07,17,0.00
2013,12,30,07,18,0.00
2013,12,30,07,19,0.00
2013,12,30,07,20,0.00
2013,12,30,07,21,0.00
2013,12,30,07,22,0.00
2013,12,30,07,23,0.00
2013,12,30,07,24,0.00
2013,12,30,07,25,0.00
2013,12,30,07,26,0.00
2013,12,30,07,27,0.00
2013,12,30,07,28,0.00
2013,12,30,07,29,0.00
2013,12,30,07,30,0.00
2013,12,30,07,31,0.00
2013,12,30,07,32,0.00
2013,12,30,07,33,0.00
2013,12,30,07,34,0.00
2013,12,30,07,35,0.00
2013,12,30,07,36,0.00
2013,12,30,07,37,0.00
2013,12,30,07,38,0.00
2013,12,30,07,39,0.00
2013,12,30,07,40,0.00
2013,12,30,07,41,0.00
2013,12,30,07,42,0.00
2013,12,30,07,43,0.00
2013,12,30,07,44,0.00
2013,12,30,07,45,0.00
2013,12,30,07,46,0.00
2013,12,30,07,47,0.00
2013,12,30,07,48,0.00
2013,12,30,07,49,0.00
2013,12,30,07,50,0.00
2013,12,30,07,51,0.00
2013,12,30,07,52,0.00
2013,12,30,07,53,0.00
2013,12,30,07,54,0.00
2013,12,30,07,55,0.00
2013,12,30,07,56,0.00
2013,12,30,07,57,0.00
2013,12,30,07,58,0.00
2013,12,30,07,59,0.00
2013,12,30,08,00,0.00
2013,12,30,08,01,0.00
2013,12,30,08,02,0.00
2013,12,30,08,03,0.00
2013,12,30,08,04,0.00
2013,12,30,08,05,0.00
2013,12,30,08,06,0.00
2013,12,30,08,07,0.00
2013,12,30,08,08,0.00
2013,12,30,08,09,0.00
2013,12,30,08,10,0.00
2013,12,30,08,11,0.00
2013,12,30,08,12,0.00
2013,12,30,08,13,0.00
2013,12,30,08,14,0.00
2013,12,30,08,15,0.00
2013,12,30,08,16,0.00
2013,12,30,08,17,0.00
2013,12,30,08,18,0.00
2013,12,30,08,19,0.00
2013,12,30,08,20,0.00
2013,12,30,08,21,0.00
2013,12,30,08,22,0.00
2013,12,30,08,23,0.00
2013,12,30,08,24,0.00
2013,12,30,08,25,0.00
2013,12,30,08,26,0.00
2013,12,30,08,27,0.00
2013,12,30,08,28,0.00
2013,12,30,08,29,0.00
2013,12,30,08,30,0.00
2013,12,30,08,31,0.00
2013,12,30,08,32,0.00
2013,12,30,08,33,0.00
2013,12,30,08,34,0.00
2013,12,30,08,35,0.00
2013,12,30,08,36,0.00
2013,12,30,08,37,0.00
2013,12,30,08,38,0.00
2013,12,30,08,39,0.00
2013,12,30,08,40,0.00
2013,12,30,08,41,0.00
2013,12,30,08,42,0.00
2013,12,30,08,43,0.00
2013,12,30,08,44,0.00
2013,12,30,08,45,0.00
2013,12,30,08,46,0.00
2013,12,30,08,47,0.00
2013,12,30,08,48,0.00
2013,12,30,08,49,0.00
2013,12,30,08,50,0.00
2013,12,30,08,51,0.00
2013,12,30,08,52,0.00
2013,12,30,08,53,0.00
2013,12,30,08,54,0.00
2013,12,30,08,55,0.00
2013,12,30,08,56,1.40
2013,12,30,08,57,5.00
2013,12,30,08,58,5.00
2013,12,30,08,59,5.00
2013,12,30,09,00,5.00
2013,12,30,09,01,5.00
2013,12,30,09,02,5.00
2013,12,30,09,03,5.00
2013,12,30,09,04,5.00
2013,12,30,09,05,5.00
2013,12,30,09,06,5.00
2013,12,30,09,07,5.00
2013,12,30,09,08,5.00
2013,12,30,09,09,5.00
2013,12,30,09,10,5.00
2013,12,30,09,11,5.00
2013,12,30,09,12,5.00
2013,12,30,09,13,5.00
2013,12,30,09,14,5.00
2013,12,30,09,15,5.00
2013,12,30,09,16,5.00
2013,12,30,09,17,5.00
2013,12,30,09,18,5.00
2013,12,30,09,19,5.00
2013,12,30,09,20,5.00
2013,12,30,09,21,5.00
2013,12,30,09,22,5.00
2013,12,30,09,23,5.00
2013,12,30,09,24,5.00
2013,12,30,09,25,5.00
2013,12,30,09,26,5.00
2013,12,30,09,27,5.00
2013,12,30,09,28,5.00
2013,12,30,09,29,5.00
2013,12,30,09,30,5.00
2013,12,30,09,31,5.00
2013,12,30,09,32,5.00
2013,12,30,09,33,5.00
2013,12,30,09,34,5.00
2013,12,30,09,35,5.00
2013,12,30,09,36,5.10
2013,12,30,09,37,7.00
2013,12,30,09,38,7.00
2013,12,30,09,39,7.00
2013,12,30,09,40,7.00
2013,12,30,09,41,7.00
2013,12,30,09,42,7.00
2013,12,30,09,43,7.00
2013,12,30,09,44,7.00
2013,12,30,09,45,7.00
2013,12,30,09,46,7.00
2013,12,30,09,47,7.00
2013,12,30,09,48,7.00
2013,12,30,09,49,7.00
2013,12,30,09,50,7.00
2013,12,30,09,51,7.30
2013,12,30,09,52,9.00
2013,12,30,09,53,9.00
2013,12,30,09,54,9.00
2013,12,30,09,55,10.30
2013,12,30,09,56,11.00
2013,12,30,09,57,11.00
2013,12,30,09,58,11.00
2013,12,30,09,59,11.30
2013,12,30,10,00,12.00
2013,12,30,10,01,12.00
2013,12,30,10,02,12.00
2013,12,30,10,03,12.00
2013,12,30,10,04,12.00
2013,12,30,10,05,12.00
2013,12,30,10,06,12.00
2013,12,30,10,07,12.00
2013,12,30,10,08,12.00
2013,12,30,10,09,12.00
2013,12,30,10,10,12.00
2013,12,30,10,11,13.80
2013,12,30,10,12,14.00
2013,12,30,10,13,14.60
2013,12,30,10,14,16.00
2013,12,30,10,15,16.00
2013,12,30,10,16,14.70
2013,12,30,10,17,14.00
2013,12,30,10,18,14.00
2013,12,30,10,19,14.00
2013,12,30,10,20,14.00
2013,12,30,10,21,14.80
2013,12,30,10,22,16.00
2013,12,30,10,23,16.00
2013,12,30,10,24,17.60
2013,12,30,10,25,18.00
2013,12,30,10,26,18.00
2013,12,30,10,27,18.30
2013,12,30,10,28,19.00
2013,12,30,10,29,19.00
2013,12,30,10,30,20.30
2013,12,30,10,31,22.50
2013,12,30,10,32,23.00
2013,12,30,10,33,23.00
2013,12,30,10,34,23.00
2013,12,30,10,35,23.00
2013,12,30,10,36,21.90
2013,12,30,10,37,21.00
2013,12,30,10,38,21.00
2013,12,30,10,39,21.10
2013,12,30,10,40,23.00
2013,12,30,10,41,23.00
2013,12,30,10,42,23.80
2013,12,30,10,43,25.00
2013,12,30,10,44,25.00
2013,12,30,10,45,25.00
2013,12,30,10,46,25.00
2013,12,30,10,47,26.00
2013,12,30,10,48,26.00
2013,12,30,10,49,26.00
2013,12,30,10,50,26.00
2013,12,30,10,51,26.00
2013,12,30,10,52,26.00
2013,12,30,10,53,26.00
2013,12,30,10,54,25.90
2013,12,30,10,55,25.00
2013,12,30,10,56,24.20
2013,12,30,10,57,24.00
2013,12,30,10,58,25.00
2013,12,30,10,59,25.00
2013,12,30,11,00,25.00
2013,12,30,11,01,25.00
2013,12,30,11,02,25.00
2013,12,30,11,03,25.40
2013,12,30,11,04,26.00
2013,12,30,11,05,26.00
2013,12,30,11,06,26.00
2013,12,30,11,07,26.00
2013,12,30,11,08,26.00
2013,12,30,11,09,26.60
2013,12,30,11,10,28.80
2013,12,30,11,11,30.00
2013,12,30,11,12,31.90
2013,12,30,11,13,34.50
2013,12,30,11,14,36.90
2013,12,30,11,15,39.90
2013,12,30,11,16,44.80
2013,12,30,11,17,46.60
2013,12,30,11,18,43.90
2013,12,30,11,19,40.70
2013,12,30,11,20,37.70
2013,12,30,11,21,35.10
2013,12,30,11,22,33.30
2013,12,30,11,23,35.00
2013,12,30,11,24,35.90
2013,12,30,11,25,38.10
2013,12,30,11,26,37.70
2013,12,30,11,27,35.40
2013,12,30,11,28,33.20
2013,12,30,11,29,33.00
2013,12,30,11,30,33.00
2013,12,30,11,31,33.00
2013,12,30,11,32,33.00
2013,12,30,11,33,33.00
2013,12,30,11,34,34.60
2013,12,30,11,35,36.90
2013,12,30,11,36,39.20
2013,12,30,11,37,40.60
2013,12,30,11,38,42.00
2013,12,30,11,39,44.10
2013,12,30,11,40,46.70
2013,12,30,11,41,48.60
2013,12,30,11,42,49.00
2013,12,30,11,43,49.00
2013,12,30,11,44,49.60
2013,12,30,11,45,51.80
2013,12,30,11,46,56.60
2013,12,30,11,47,60.00
2013,12,30,11,48,54.70
2013,12,30,11,49,53.00
2013,12,30,11,50,55.30
2013,12,30,11,51,69.20
2013,12,30,11,52,66.20
2013,12,30,11,53,61.40
2013,12,30,11,54,58.00
2013,12,30,11,55,67.10
2013,12,30,11,56,70.50
2013,12,30,11,57,83.50
2013,12,30,11,58,79.00
2013,12,30,11,59,68.70
2013,12,30,12,00,61.60
2013,12,30,12,01,67.60
2013,12,30,12,02,75.50
2013,12,30,12,03,77.20
2013,12,30,12,04,83.00
2013,12,30,12,05,82.40
2013,12,30,12,06,81.80
2013,12,30,12,07,79.70
2013,12,30,12,08,73.80
2013,12,30,12,09,75.00
2013,12,30,12,10,72.30
2013,12,30,12,11,70.30
2013,12,30,12,12,73.40
2013,12,30,12,13,77.80
2013,12,30,12,14,81.20
2013,12,30,12,15,93.20
2013,12,30,12,16,97.20
2013,12,30,12,17,77.90
2013,12,30,12,18,70.40
2013,12,30,12,19,84.10
2013,12,30,12,20,128.90
2013,12,30,12,21,190.60
2013,12,30,12,22,198.60
2013,12,30,12,23,175.30
2013,12,30,12,24,143.60
2013,12,30,12,25,132.50
2013,12,30,12,26,148.00
2013,12,30,12,27,147.20
2013,12,30,12,28,146.00
2013,12,30,12,29,127.70
2013,12,30,12,30,125.90
2013,12,30,12,31,180.70
2013,12,30,12,32,273.60
2013,12,30,12,33,236.00
2013,12,30,12,34,224.60
2013,12,30,12,35,221.30
2013,12,30,12,36,218.60
2013,12,30,12,37,255.40
2013,12,30,12,38,268.10
2013,12,30,12,39,349.00
2013,12,30,12,40,320.00
2013,12,30,12,41,290.90
2013,12,30,12,42,237.20
2013,12,30,12,43,243.40
2013,12,30,12,44,259.60
2013,12,30,12,45,227.90
2013,12,30,12,46,254.00
2013,12,30,12,47,283.00
2013,12,30,12,48,318.60
2013,12,30,12,49,340.60
2013,12,30,12,50,264.70
2013,12,30,12,51,234.00
2013,12,30,12,52,238.70
2013,12,30,12,53,366.40
2013,12,30,12,54,339.00
2013,12,30,12,55,368.40
2013,12,30,12,56,387.00
2013,12,30,12,57,388.00
2013,12,30,12,58,458.70
2013,12,30,12,59,403.20
2013,12,30,13,00,473.00
2013,12,30,13,01,489.60
2013,12,30,13,02,452.80
2013,12,30,13,03,415.40
2013,12,30,13,04,379.50
2013,12,30,13,05,385.20
2013,12,30,13,06,387.10
2013,12,30,13,07,384.00
2013,12,30,13,08,376.10
2013,12,30,13,09,371.80
2013,12,30,13,10,369.80
2013,12,30,13,11,362.40
2013,12,30,13,12,354.40
2013,12,30,13,13,336.10
2013,12,30,13,14,313.70
2013,12,30,13,15,355.40
2013,12,30,13,16,338.00
2013,12,30,13,17,339.60
2013,12,30,13,18,277.40
2013,12,30,13,19,258.30
2013,12,30,13,20,257.70
2013,12,30,13,21,266.10
2013,12,30,13,22,241.20
2013,12,30,13,23,223.70
2013,12,30,13,24,272.20
2013,12,30,13,25,289.50
2013,12,30,13,26,335.20
2013,12,30,13,27,343.20
2013,12,30,13,28,323.60
2013,12,30,13,29,202.90
2013,12,30,13,30,192.00
2013,12,30,13,31,204.90
2013,12,30,13,32,224.50
2013,12,30,13,33,259.10
2013,12,30,13,34,269.30
2013,12,30,13,35,286.60
2013,12,30,13,36,317.50
2013,12,30,13,37,294.90
2013,12,30,13,38,272.00
2013,12,30,13,39,255.00
2013,12,30,13,40,240.40
2013,12,30,13,41,237.00
2013,12,30,13,42,234.00
2013,12,30,13,43,218.80
2013,12,30,13,44,202.60
2013,12,30,13,45,226.10
2013,12,30,13,46,192.80
2013,12,30,13,47,189.30
2013,12,30,13,48,152.70
2013,12,30,13,49,124.20
2013,12,30,13,50,107.60
2013,12,30,13,51,101.60
2013,12,30,13,52,100.40
2013,12,30,13,53,106.20
2013,12,30,13,54,111.00
2013,12,30,13,55,119.00
2013,12,30,13,56,84.60
2013,12,30,13,57,76.80
2013,12,30,13,58,77.80
2013,12,30,13,59,74.90
2013,12,30,14,00,75.30
2013,12,30,14,01,81.60
2013,12,30,14,02,96.30
2013,12,30,14,03,104.60
2013,12,30,14,04,102.80
2013,12,30,14,05,105.80
2013,12,30,14,06,110.80
2013,12,30,14,07,113.30
2013,12,30,14,08,118.60
2013,12,30,14,09,161.20
2013,12,30,14,10,146.40
2013,12,30,14,11,130.00
2013,12,30,14,12,132.90
2013,12,30,14,13,169.00
2013,12,30,14,14,215.40
2013,12,30,14,15,242.40
2013,12,30,14,16,203.40
2013,12,30,14,17,177.90
2013,12,30,14,18,158.70
2013,12,30,14,19,155.00
2013,12,30,14,20,189.40
2013,12,30,14,21,175.30
2013,12,30,14,22,124.10
2013,12,30,14,23,108.70
2013,12,30,14,24,84.80
2013,12,30,14,25,77.60
2013,12,30,14,26,81.10
2013,12,30,14,27,84.00
2013,12,30,14,28,80.70
2013,12,30,14,29,77.40
2013,12,30,14,30,80.50
2013,12,30,14,31,73.70
2013,12,30,14,32,73.10
2013,12,30,14,33,73.60
2013,12,30,14,34,70.00
2013,12,30,14,35,69.40
2013,12,30,14,36,69.80
2013,12,30,14,37,73.70
2013,12,30,14,38,77.90
2013,12,30,14,39,84.90
2013,12,30,14,40,90.00
2013,12,30,14,41,91.60
2013,12,30,14,42,93.00
2013,12,30,14,43,94.60
2013,12,30,14,44,93.10
2013,12,30,14,45,89.70
2013,12,30,14,46,86.60
2013,12,30,14,47,80.50
2013,12,30,14,48,74.20
2013,12,30,14,49,70.70
2013,12,30,14,50,70.00
2013,12,30,14,51,70.00
2013,12,30,14,52,69.00
2013,12,30,14,53,69.30
2013,12,30,14,54,71.70
2013,12,30,14,55,75.10
2013,12,30,14,56,76.70
2013,12,30,14,57,78.60
2013,12,30,14,58,80.60
2013,12,30,14,59,73.70
2013,12,30,15,00,71.10
2013,12,30,15,01,68.20
2013,12,30,15,02,66.00
2013,12,30,15,03,66.30
2013,12,30,15,04,68.60
2013,12,30,15,05,67.10
2013,12,30,15,06,64.70
2013,12,30,15,07,63.00
2013,12,30,15,08,63.00
2013,12,30,15,09,62.40
2013,12,30,15,10,60.60
2013,12,30,15,11,56.80
2013,12,30,15,12,53.10
2013,12,30,15,13,48.60
2013,12,30,15,14,45.40
2013,12,30,15,15,42.30
2013,12,30,15,16,38.40
2013,12,30,15,17,34.40
2013,12,30,15,18,30.60
2013,12,30,15,19,30.10
2013,12,30,15,20,32.50
2013,12,30,15,21,36.10
2013,12,30,15,22,40.20
2013,12,30,15,23,43.10
2013,12,30,15,24,44.00
2013,12,30,15,25,44.00
2013,12,30,15,26,42.00
2013,12,30,15,27,38.70
2013,12,30,15,28,36.40
2013,12,30,15,29,34.10
2013,12,30,15,30,32.40
2013,12,30,15,31,30.60
2013,12,30,15,32,30.00
2013,12,30,15,33,28.10
2013,12,30,15,34,28.00
2013,12,30,15,35,27.40
2013,12,30,15,36,26.00
2013,12,30,15,37,25.40
2013,12,30,15,38,23.60
2013,12,30,15,39,23.00
2013,12,30,15,40,21.10
2013,12,30,15,41,20.70
2013,12,30,15,42,19.00
2013,12,30,15,43,19.00
2013,12,30,15,44,19.00
2013,12,30,15,45,18.30
2013,12,30,15,46,18.00
2013,12,30,15,47,18.00
2013,12,30,15,48,18.00
2013,12,30,15,49,18.00
2013,12,30,15,50,18.40
2013,12,30,15,51,19.00
2013,12,30,15,52,19.00
2013,12,30,15,53,18.20
2013,12,30,15,54,16.10
2013,12,30,15,55,14.00
2013,12,30,15,56,14.00
2013,12,30,15,57,13.20
2013,12,30,15,58,12.00
2013,12,30,15,59,12.00
2013,12,30,16,00,12.00
2013,12,30,16,01,12.00
2013,12,30,16,02,12.00
2013,12,30,16,03,12.00
2013,12,30,16,04,11.60
2013,12,30,16,05,11.00
2013,12,30,16,06,11.00
2013,12,30,16,07,11.00
2013,12,30,16,08,11.00
2013,12,30,16,09,11.00
2013,12,30,16,10,11.00
2013,12,30,16,11,11.00
2013,12,30,16,12,9.90
2013,12,30,16,13,9.00
2013,12,30,16,14,9.00
2013,12,30,16,15,7.10
2013,12,30,16,16,7.00
2013,12,30,16,17,6.40
2013,12,30,16,18,5.00
2013,12,30,16,19,5.00
2013,12,30,16,20,5.00
2013,12,30,16,21,5.00
2013,12,30,16,22,5.00
2013,12,30,16,23,5.00
2013,12,30,16,24,3.60
2013,12,30,16,25,0.00
2013,12,30,16,26,0.00
2013,12,30,16,27,0.00
2013,12,30,16,28,0.00
2013,12,30,16,29,0.00
2013,12,30,16,30,0.00
2013,12,30,16,31,0.00
2013,12,30,16,32,0.00
2013,12,30,16,33,0.00
2013,12,30,16,34,0.00
2013,12,30,16,35,0.00
2013,12,30,16,36,0.00
2013,12,30,16,37,0.00
2013,12,30,16,38,0.00
2013,12,30,16,39,0.00
2013,12,30,16,40,0.00
2013,12,30,16,41,0.00
2013,12,30,16,42,0.00
2013,12,30,16,43,0.00
2013,12,30,16,44,0.00
2013,12,30,16,45,0.00
2013,12,30,16,46,0.00
2013,12,30,16,47,0.00
2013,12,30,16,48,0.00
2013,12,30,16,49,0.00
2013,12,30,16,50,0.00
2013,12,30,16,51,0.00
2013,12,30,16,52,0.00
2013,12,30,16,53,0.00
2013,12,30,16,54,0.00
2013,12,30,16,55,0.00
2013,12,30,16,56,0.00
2013,12,30,16,57,0.00
2013,12,30,16,58,0.00
2013,12,30,16,59,0.00
2013,12,30,17,00,0.00
2013,12,30,17,01,0.00
2013,12,30,17,02,0.00
2013,12,30,17,03,0.00
2013,12,30,17,04,0.00
2013,12,30,17,05,0.00
2013,12,30,17,06,0.00
2013,12,30,17,07,0.00
2013,12,30,17,08,0.00
2013,12,30,17,09,0.00
2013,12,30,17,10,0.00
2013,12,30,17,11,0.00
2013,12,30,17,12,0.00
2013,12,30,17,13,0.00
2013,12,30,17,14,0.00
2013,12,30,17,15,0.00
2013,12,30,17,16,0.00
2013,12,30,17,17,0.00
2013,12,30,17,18,0.00
2013,12,30,17,19,0.00
2013,12,30,17,20,0.00
2013,12,30,17,21,0.00
2013,12,30,17,22,0.00
2013,12,30,17,23,0.00
2013,12,30,17,24,0.00
2013,12,30,17,25,0.00
2013,12,30,17,26,0.00
2013,12,30,17,27,0.00
2013,12,30,17,28,0.00
2013,12,30,17,29,0.00
2013,12,30,17,30,0.00
2013,12,30,17,31,0.00
2013,12,30,17,32,0.00
2013,12,30,17,33,0.00
2013,12,30,17,34,0.00
2013,12,30,17,35,0.00
2013,12,30,17,36,0.00
2013,12,30,17,37,0.00
2013,12,30,17,38,0.00
2013,12,30,17,39,0.00
2013,12,30,17,40,0.00
2013,12,30,17,41,0.00
2013,12,30,17,42,0.00
2013,12,30,17,43,0.00
2013,12,30,17,44,0.00